Weather History for PAUN - June, 2013

Change the Weather History Date:

Thursday, June 13, 2013

  Actual Average Record
Temperature  
Mean Temperature 66 °F -  
Max Temperature 78 °F 54 °F 78 °F (2013)
Min Temperature 55 °F 41 °F 30 °F (2012)
Cooling Degree Days 2    
Growing Degree Days 16 (Base 50)    
Moisture  
Dew Point 37 °F    
Average Humidity 33    
Maximum Humidity 54    
Minimum Humidity 20    
Precipitation  
Precipitation 0.00 in - - ()
Sea Level Pressure  
Sea Level Pressure 29.99 in    
Wind  
Wind Speed 11 mph (ENE)    
Max Wind Speed 20 mph    
Max Gust Speed 25 mph    
Visibility 10 miles    
Events      
Averages and records for this station are not official NWS values.
T = Trace of Precipitation, MM = Missing Value Source: NWS Daily Summary

Daily Weather History Graph

Daily Weather History Graph

Search for Another Location

Airport or City:

Trip Planner

Search our weather history database for the weather conditions in past years. The results will help you decide how hot, cold, wet, or windy it might be!

Date:

Astronomy

Jun. 13, 2013 Rise Set
Actual Time 4:20 AM AKDT 1:07 AM AKDT
Civil Twilight Sun does not rise Sun does not rise
Nautical Twilight Sun does not rise Sun does not rise
Astronomical Twilight Sun does not rise Sun does not rise
Moon 11:09 AM AKDT (6/13) 1:54 AM AKDT (6/13)
Length of Visible Light 24h 00m
Length of Day
20h 47m
Waxing Crescent, 23% of the Moon is Illuminated
Jun 13
Waxing Crescent
Jun 16
First Quarter
Jun 23
Full
Jun 29
Last Quarter
Jul 7
New

Hourly Weather History & Observations

Time (AKDT) Temp. Dew Point Humidity Pressure Visibility Wind Dir Wind Speed Gust Speed Precip Events Conditions
12:16 AM 64.4 °F 39.2 °F 40% 29.95 in 10.0 mi ENE 9.2 mph - N/A   Clear
12:36 AM 62.6 °F 41.0 °F 45% 29.95 in 10.0 mi ENE 9.2 mph - N/A   Clear
12:56 AM 60.8 °F 39.2 °F 45% 29.95 in 10.0 mi ESE 4.6 mph - N/A   Clear
1:16 AM 60.8 °F 37.4 °F 42% 29.96 in 10.0 mi Calm Calm - N/A   Clear
1:36 AM 59.0 °F 37.4 °F 45% 29.96 in 10.0 mi ESE 6.9 mph - N/A   Clear
1:56 AM 55.4 °F 37.4 °F 51% 29.96 in 10.0 mi ENE 6.9 mph - N/A   Clear
2:16 AM 55.4 °F 39.2 °F 54% 29.96 in 10.0 mi East 11.5 mph - N/A   Clear
2:36 AM 57.2 °F 39.2 °F 51% 29.96 in 10.0 mi ENE 11.5 mph - N/A   Clear
2:56 AM 57.2 °F 39.2 °F 51% 29.97 in 10.0 mi ENE 10.4 mph - N/A   Clear
3:16 AM 55.4 °F 39.2 °F 54% 29.97 in 10.0 mi ENE 15.0 mph - N/A   Clear
3:36 AM 57.2 °F 39.2 °F 51% 29.97 in 10.0 mi ENE 13.8 mph - N/A   Clear
3:56 AM 57.2 °F 39.2 °F 51% 29.97 in 10.0 mi ENE 12.7 mph - N/A   Clear
4:16 AM 59.0 °F 37.4 °F 45% 29.97 in 10.0 mi ENE 15.0 mph - N/A   Clear
4:36 AM 59.0 °F 37.4 °F 45% 29.97 in 10.0 mi ENE 12.7 mph - N/A   Clear
4:56 AM 59.0 °F 37.4 °F 45% 29.98 in 10.0 mi ENE 12.7 mph - N/A   Clear
5:16 AM 60.8 °F 37.4 °F 42% 29.97 in 10.0 mi ENE 16.1 mph - N/A   Clear
5:36 AM 60.8 °F 37.4 °F 42% 29.98 in 10.0 mi ENE 16.1 mph - N/A   Clear
5:56 AM 60.8 °F 37.4 °F 42% 29.98 in 10.0 mi ENE 16.1 mph - N/A   Clear
6:16 AM 60.8 °F 37.4 °F 42% 29.98 in 10.0 mi East 16.1 mph - N/A   Clear
6:36 AM 60.8 °F 37.4 °F 42% 29.98 in 10.0 mi ENE 16.1 mph - N/A   Clear
6:56 AM 60.8 °F 37.4 °F 42% 29.99 in 10.0 mi East 13.8 mph - N/A   Clear
7:16 AM 62.6 °F 37.4 °F 39% 29.99 in 10.0 mi East 12.7 mph - N/A   Clear
7:36 AM 62.6 °F 37.4 °F 39% 29.99 in 10.0 mi East 12.7 mph - N/A   Clear
7:56 AM 64.4 °F 37.4 °F 37% 29.99 in 10.0 mi East 15.0 mph - N/A   Clear
8:16 AM 64.4 °F 37.4 °F 37% 29.99 in 10.0 mi East 16.1 mph - N/A   Clear
8:36 AM 66.2 °F 37.4 °F 35% 29.99 in 10.0 mi East 16.1 mph - N/A   Clear
8:56 AM 66.2 °F 37.4 °F 35% 29.99 in 10.0 mi East 18.4 mph - N/A   Clear
9:16 AM 68.0 °F 37.4 °F 33% 29.99 in 10.0 mi East 18.4 mph 25.3 mph N/A   Clear
9:36 AM 69.8 °F 37.4 °F 31% 30.00 in 10.0 mi East 19.6 mph - N/A   Clear
9:56 AM 69.8 °F 37.4 °F 31% 30.00 in 10.0 mi East 17.3 mph - N/A   Clear
10:16 AM 69.8 °F 37.4 °F 31% 30.00 in 10.0 mi East 18.4 mph - N/A   Clear
10:36 AM 71.6 °F 37.4 °F 29% 30.00 in 10.0 mi East 19.6 mph 24.2 mph N/A   Clear
10:56 AM 71.6 °F 37.4 °F 29% 30.01 in 10.0 mi ESE 18.4 mph 24.2 mph N/A   Clear
11:16 AM 73.4 °F 35.6 °F 25% 30.01 in 10.0 mi East 17.3 mph 21.9 mph N/A   Clear
11:36 AM 73.4 °F 35.6 °F 25% 30.01 in 10.0 mi ESE 19.6 mph - N/A   Clear
11:56 AM 73.4 °F 35.6 °F 25% 30.01 in 10.0 mi East 15.0 mph - N/A   Clear
12:16 PM 75.2 °F 35.6 °F 24% 30.01 in 10.0 mi ESE 16.1 mph 24.2 mph N/A   Clear
12:36 PM 75.2 °F 35.6 °F 24% 30.01 in 10.0 mi East 12.7 mph 20.7 mph N/A   Clear
12:56 PM 75.2 °F 35.6 °F 24% 30.01 in 10.0 mi ESE 13.8 mph - N/A   Clear
1:16 PM 75.2 °F 35.6 °F 24% 30.01 in 10.0 mi East 12.7 mph 19.6 mph N/A   Clear
1:36 PM 75.2 °F 33.8 °F 22% 30.01 in 10.0 mi East 11.5 mph 18.4 mph N/A   Clear
1:56 PM 78.8 °F 35.6 °F 21% 30.00 in 10.0 mi ESE 13.8 mph - N/A   Clear
2:16 PM 77.0 °F 35.6 °F 22% 30.00 in 10.0 mi SE 5.8 mph - N/A   Clear
2:36 PM 77.0 °F 33.8 °F 21% 30.00 in 10.0 mi ESE 3.5 mph - N/A   Clear
2:56 PM 78.8 °F 33.8 °F 20% 30.00 in 10.0 mi East 6.9 mph - N/A   Clear
3:16 PM 78.8 °F 33.8 °F 20% 30.00 in 9.0 mi East 9.2 mph - N/A   Clear
3:36 PM 78.8 °F 35.6 °F 21% 30.00 in 10.0 mi ESE 6.9 mph - N/A   Clear
3:56 PM 77.0 °F 35.6 °F 22% 30.00 in 10.0 mi WNW 5.8 mph - N/A   Clear
4:16 PM 69.8 °F 35.6 °F 28% 30.00 in 10.0 mi NW 9.2 mph - N/A   Clear
4:36 PM 71.6 °F 35.6 °F 27% 30.00 in 10.0 mi NW 10.4 mph - N/A   Clear
4:56 PM 71.6 °F 35.6 °F 27% 30.00 in 10.0 mi NW 10.4 mph - N/A   Clear
5:16 PM 73.4 °F 35.6 °F 25% 30.00 in 10.0 mi NNW 12.7 mph - N/A   Clear
5:36 PM 77.0 °F 35.6 °F 22% 30.00 in 10.0 mi NNW 11.5 mph - N/A   Clear
5:56 PM 78.8 °F 33.8 °F 20% 29.99 in 10.0 mi NNW 10.4 mph - N/A   Clear
6:16 PM 75.2 °F 33.8 °F 22% 29.99 in 10.0 mi NNW 11.5 mph - N/A   Clear
6:36 PM 73.4 °F 33.8 °F 23% 29.99 in 10.0 mi NNW 10.4 mph - N/A   Clear
6:56 PM 73.4 °F 35.6 °F 25% 29.98 in 10.0 mi NNW 9.2 mph - N/A   Clear
7:16 PM 75.2 °F 35.6 °F 24% 29.98 in 10.0 mi NNW 10.4 mph - N/A   Clear
7:36 PM 73.4 °F 33.8 °F 23% 29.98 in 10.0 mi NNW 10.4 mph - N/A   Clear
7:56 PM 77.0 °F 33.8 °F 21% 29.98 in 10.0 mi NNW 11.5 mph - N/A   Clear
8:16 PM 75.2 °F 35.6 °F 24% 29.98 in 10.0 mi NNW 9.2 mph - N/A   Clear
8:36 PM 69.8 °F 37.4 °F 31% 29.98 in 10.0 mi NNW 9.2 mph - N/A   Clear
8:56 PM 66.2 °F 35.6 °F 32% 29.99 in 10.0 mi NNW 11.5 mph - N/A   Clear
9:16 PM 73.4 °F 37.4 °F 27% 29.99 in 10.0 mi NW 8.1 mph - N/A   Clear
9:36 PM 71.6 °F 35.6 °F 27% 29.99 in 10.0 mi NW 9.2 mph - N/A   Clear
9:56 PM 73.4 °F 35.6 °F 25% 29.99 in 10.0 mi Calm Calm - N/A   Clear
10:16 PM 73.4 °F 37.4 °F 27% 29.99 in 10.0 mi Calm Calm - N/A   Clear
10:36 PM 71.6 °F 35.6 °F 27% 29.99 in 10.0 mi East 3.5 mph - N/A   Clear
10:56 PM 66.2 °F 37.4 °F 35% 30.00 in 9.0 mi East 4.6 mph - N/A   Mostly Cloudy
11:16 PM 66.2 °F 39.2 °F 37% 30.00 in 10.0 mi East 5.8 mph - N/A   Overcast
11:36 PM 68.0 °F 37.4 °F 33% 30.00 in 10.0 mi East 8.1 mph - N/A   Overcast
11:56 PM 64.4 °F 39.2 °F 40% 30.01 in 10.0 mi South 10.4 mph - N/A   Overcast